Temp
16 17 17 18 19 19 20 21 21 22 22 23 23 23 24 26 27 27 34 32 32 32 31 34 35 37 37 38 38 39 37 35 35 35 35 36 35 35 36 35 35 35 32 31 32
16 16 17 17 19 19 20 21 21 22 22 23 23 23 24 25 26 33 31 32 31 31 33 36 38 38 39 38 38 38 36 35 36 37 36 36 35 35 35 35 34 35 35 33 32
17 17 17 17 18 19 20 21 21 22 22 23 23 24 25 25 31 36 31 32 31 31 33 36 37 38 38 39 38 37 35 36 36 36 37 36 36 36 35 34 35 33 34 34 32
17 17 17 17 18 19 19 20 21 22 22 23 23 24 25 24 34 33 30 31 31 31 34 36 38 38 38 37 38 36 37 37 37 37 36 36 37 36 36 36 37 35 35 34 33
17 17 17 17 18 19 19 20 21 22 22 23 23 24 24 32 35 31 31 32 31 31 35 37 37 38 38 38 37 37 37 38 38 37 37 37 36 36 36 37 37 36 35 34 34
17 17 17 17 18 18 19 20 21 22 22 23 23 23 25 33 33 32 32 32 34 34 36 37 38 38 38 38 37 37 38 38 38 38 37 36 37 36 37 37 36 36 35 34 33
16 17 17 17 18 19 20 20 21 22 22 23 23 22 30 34 33 33 33 34 35 35 38 37 37 37 38 38 38 37 37 38 38 38 37 37 36 36 37 37 36 35 35 34 34
15 15 17 18 18 19 20 21 22 22 22 23 23 23 33 33 32 32 34 34 34 35 36 36 36 37 38 38 38 37 37 37 38 38 37 36 36 37 38 36 36 35 35 35 35
11 12 14 16 18 19 21 21 22 22 22 23 23 28 35 30 32 34 34 35 35 35 35 35 36 37 38 37 37 37 36 36 37 38 37 37 36 37 38 37 36 36 35 35 34
10 10 11 14 18 19 21 21 21 22 22 22 26 30 34 35 35 35 35 35 36 37 36 36 37 37 37 37 36 36 37 37 36 38 38 37 37 39 38 37 37 37 36 35 34
10 9 10 13 18 19 19 20 26 28 28 34 35 35 36 35 34 34 35 36 37 36 35 37 36 36 38 38 37 36 36 36 37 38 37 37 37 38 39 38 36 37 36 35 34
10 9 9 12 18 19 19 29 32 31 34 34 34 34 34 35 35 36 35 36 36 35 37 37 35 38 38 37 36 37 36 37 38 38 37 37 36 38 37 37 37 36 37 36 35
9 9 9 10 17 18 23 29 29 30 34 34 35 35 35 35 36 36 36 36 36 36 37 36 38 38 37 36 36 37 37 37 36 37 38 37 32 31 36 36 36 36 37 37 36
9 9 10 13 15 26 26 27 28 29 34 34 34 35 35 36 36 38 36 37 37 36 37 37 38 36 36 36 37 37 38 37 37 36 36 38 33 32 35 36 35 36 36 37 37
10 11 14 15 20 27 29 28 29 30 33 36 35 36 37 36 37 36 37 37 36 36 36 37 36 36 36 37 38 37 38 37 37 37 37 36 34 24 23 36 37 37 37 37 38
13 15 17 16 18 26 27 28 29 32 33 35 36 35 35 36 37 36 36 37 38 36 37 37 38 38 38 38 38 38 37 38 38 38 36 36 35 24 30 36 37 37 37 37 38
20 20 19 21 29 27 27 31 32 34 37 35 35 36 36 36 36 36 35 35 36 35 36 37 37 38 38 37 38 38 38 36 36 36 33 35 35 35 37 37 35 36 37 36 37
22 21 21 22 25 26 28 33 32 36 37 38 37 37 36 37 37 36 36 36 37 37 37 37 35 38 38 37 37 38 38 37 34 36 31 35 35 35 38 38 37 37 37 36 36
19 20 25 27 24 26 32 34 36 37 37 37 37 36 36 37 37 37 37 37 38 38 36 37 37 39 38 39 38 38 37 39 38 39 38 34 33 37 34 37 38 38 37 37 34
22 29 30 27 27 28 32 32 36 36 37 38 36 37 36 36 36 37 37 38 37 37 38 38 36 39 39 39 39 38 39 37 37 34 34 34 36 34 36 36 37 37 37 37 36
22 32 30 28 28 32 34 35 36 37 37 37 37 37 38 37 37 37 37 37 37 37 37 38 37 37 38 37 37 37 37 38 39 38 36 36 31 37 36 37 37 37 37 36 36
30 33 30 29 32 35 36 36 29 37 37 37 38 38 37 37 37 37 37 36 36 37 36 38 37 36 37 39 39 39 38 38 36 36 37 36 34 38 37 37 36 36 36 36 35
32 33 31 31 33 35 35 35 36 36 36 37 36 37 37 36 35 36 36 35 35 36 35 36 36 35 36 38 37 37 38 39 39 39 36 35 35 33 37 36 35 35 35 36 35
32 33 33 34 35 35 35 35 35 35 35 36 35 36 36 36 36 35 36 35 35 35 27 32 35 35 35 36 35 35 37 38 38 37 36 30 30 29 35 35 34 33 34 35 35
32 33 32 33 34 35 34 34 34 34 35 35 34 35 35 34 35 35 36 35 36 27 32 35 34 35 36 36 36 36 36 36 36 37 36 37 36 34 35 34 33 33 33 33 33
29 29 32 33 32 33 27 34 34 34 33 35 34 34 34 34 34 33 34 34 34 35 34 35 33 33 33 35 35 35 36 36 36 36 37 37 37 35 34 33 32 32 32 32 31
25 27 29 24 33 33 33 33 33 32 33 33 33 33 34 33 33 33 34 35 35 34 33 33 33 32 32 34 35 34 36 36 36 36 37 36 35 34 33 32 31 31 31 31 31
Height
810 808 806 804 802 801 799 797 796 795 794 792 791 789 787 784 782 779 772 773 773 773 772 768 765 759 755 750 750 744 763 778 778 773 769 757 763 755 751 755 755 754 764 768 774
809 807 805 803 802 800 798 797 795 794 793 792 790 788 786 784 780 773 773 773 773 773 772 763 758 755 748 752 751 754 768 779 765 758 762 755 758 757 760 757 761 761 761 767 776
809 807 804 802 801 799 797 796 795 794 793 791 790 788 786 784 777 762 769 772 773 773 773 766 761 754 752 750 756 758 775 764 762 760 754 755 754 751 758 764 757 766 763 770 776
808 806 804 801 800 798 796 795 794 793 792 791 789 787 785 785 783 767 770 771 773 773 772 764 758 757 757 762 755 770 760 758 755 754 756 760 751 753 755 755 748 752 758 767 773
807 804 802 800 798 796 795 794 793 792 791 790 789 787 785 777 766 769 770 771 772 774 769 761 759 756 762 757 758 764 758 751 747 749 753 750 757 756 753 747 749 752 759 765 770
805 803 800 798 796 794 793 792 792 791 790 789 788 787 786 780 768 769 771 771 770 771 765 762 756 754 758 759 764 759 756 750 748 747 748 756 752 753 745 744 751 753 758 762 768
803 800 798 796 794 792 791 791 790 790 789 788 788 787 780 767 768 769 770 768 767 766 761 761 760 760 751 759 753 756 765 751 748 748 751 748 758 756 742 745 751 753 756 760 766
800 797 795 793 792 790 789 789 789 788 788 788 787 788 770 765 768 769 768 767 767 766 764 761 764 759 757 751 755 764 760 770 750 751 748 753 768 741 735 746 750 752 755 756 760
797 794 791 790 789 788 788 788 788 788 788 787 788 783 764 765 766 765 765 764 766 765 765 768 765 761 754 769 768 762 777 774 765 744 753 754 765 740 734 741 746 747 750 755 760
794 791 788 787 786 787 787 788 788 787 787 789 786 782 762 758 758 762 764 763 762 762 765 766 763 768 763 765 788 776 772 768 771 750 748 753 749 732 727 736 741 741 744 752 757
791 788 786 784 784 785 787 789 787 784 780 759 758 757 753 755 762 762 763 762 759 762 774 761 773 776 759 752 761 769 772 773 755 746 757 754 748 734 725 727 739 736 737 746 751
788 785 783 782 782 783 785 777 766 769 764 761 761 760 757 755 761 757 761 764 764 773 760 765 779 754 746 758 767 766 770 764 750 746 750 748 752 733 732 727 730 735 732 737 743
785 782 781 780 780 783 781 773 772 770 763 758 755 754 755 757 753 756 758 757 763 768 762 772 753 746 755 764 772 763 762 758 764 750 739 747 773 766 734 731 729 729 728 727 735
781 779 778 778 784 777 776 773 774 772 766 765 759 753 753 750 756 743 753 753 757 766 760 761 746 761 763 766 758 766 744 752 757 762 771 737 787 766 743 732 734 730 730 727 729
777 776 776 777 777 774 770 772 773 772 788 748 751 745 742 750 744 753 750 751 762 761 763 759 760 764 768 760 748 762 743 752 751 755 748 752 775 823 794 740 732 725 722 726 721
773 772 775 779 778 772 773 772 773 783 782 757 745 754 755 748 745 748 753 749 743 756 754 754 739 747 749 743 744 743 750 744 738 739 770 758 762 819 779 746 732 725 721 719 719
770 771 773 776 767 772 772 769 777 775 733 759 754 747 748 750 752 755 762 766 764 777 768 751 750 741 743 756 741 744 751 767 774 768 789 757 763 762 736 730 736 730 725 723 720
770 771 772 772 773 772 771 767 782 741 739 729 735 743 754 745 747 752 758 762 748 749 753 758 777 744 736 750 751 744 743 762 792 772 797 752 764 759 719 716 719 720 721 725 725
773 772 773 770 772 772 765 765 747 736 729 737 736 753 751 746 744 749 752 749 737 737 764 755 759 732 735 732 739 746 758 726 749 732 747 772 766 724 729 717 714 720 720 723 729
774 766 763 769 770 769 762 761 742 732 729 726 749 738 757 752 756 751 751 740 746 741 734 744 768 733 729 730 732 741 727 757 752 784 786 769 749 760 736 728 718 724 723 725 725
774 756 762 767 768 762 757 743 740 731 730 734 736 743 735 746 745 748 744 746 744 743 740 741 749 753 735 744 745 746 746 740 733 743 765 768 786 730 734 726 728 727 725 726 726
763 754 761 764 764 743 741 739 749 734 730 732 726 727 737 741 746 746 750 747 745 742 753 738 748 758 745 720 717 725 736 734 756 761 746 751 766 720 725 728 727 729 730 729 729
756 749 759 759 759 746 741 743 737 737 738 737 741 734 735 744 762 750 748 747 748 746 756 747 757 767 753 731 733 744 730 725 724 722 749 762 760 732 727 728 733 735 733 730 732
757 755 751 750 741 739 744 744 749 741 742 739 743 738 744 749 745 754 753 748 751 749 767 761 758 763 771 754 753 758 738 727 732 747 742 772 778 763 728 735 735 738 737 734 732
756 751 752 755 749 744 745 745 750 752 743 742 751 749 752 762 753 756 749 749 745 761 759 755 769 757 749 742 740 744 744 740 744 737 748 734 736 732 732 736 737 737 741 741 740
769 769 754 752 754 755 764 752 753 751 755 750 758 753 754 763 758 764 756 758 760 748 756 748 769 763 765 748 745 749 739 738 736 734 733 729 733 718 730 731 735 742 746 747 746
783 776 770 771 753 753 750 753 757 758 754 754 757 759 756 758 755 755 751 749 749 757 760 762 764 769 773 749 748 758 735 731 731 726 728 740 731 729 738 742 744 747 748 750 749
Wind_Speed
9 9 9 9 8 8 8 8 7 7 8 8 9 11 12 12 12 8 8 5 0 2 5 8 8 7 9 1 2 7 7 6 9 10 5 5 2 3 5 3 3 1 12 13 21
9 9 9 9 8 8 8 7 7 7 7 8 9 10 11 14 12 16 2 4 4 4 9 9 4 8 8 1 1 8 5 7 5 8 7 5 6 2 6 5 4 5 6 22 21
10 11 10 10 10 9 8 7 7 7 7 7 8 9 10 11 12 4 8 10 7 7 9 9 8 12 5 2 4 5 7 3 5 8 8 7 3 2 4 3 8 9 12 16 20
11 11 11 11 10 10 8 8 7 7 7 7 7 9 9 6 4 7 5 5 12 8 12 11 10 14 6 2 4 7 2 2 3 2 5 5 5 4 3 1 6 12 13 16 17
12 12 12 12 11 10 9 8 8 7 7 6 7 8 6 10 7 4 0 4 11 11 13 10 11 5 8 4 3 5 6 6 5 3 5 3 6 5 3 4 8 4 12 15 16
14 13 13 13 12 11 11 9 8 7 7 6 5 6 7 15 4 3 3 6 11 14 14 9 7 7 8 5 6 6 10 10 3 5 3 6 8 3 6 2 5 6 12 14 15
15 13 13 12 12 11 10 9 7 7 6 5 4 4 10 9 1 3 5 8 10 14 10 10 7 11 7 11 4 7 13 9 5 6 6 8 14 10 6 6 8 9 10 13 16
16 15 13 13 11 11 8 7 6 6 4 3 3 5 8 3 5 8 8 8 8 9 10 2 8 12 8 9 11 8 11 6 8 4 5 6 8 7 10 8 9 11 12 13 13
16 16 15 13 11 9 5 4 3 2 2 3 4 9 8 5 11 14 12 11 10 9 8 4 12 14 14 11 11 9 9 4 5 6 4 5 11 6 7 9 10 12 14 13 14
16 15 14 12 8 4 3 3 2 3 3 6 10 7 8 11 12 12 12 7 9 9 10 12 11 14 13 11 8 7 5 6 7 4 7 11 11 8 11 11 12 13 14 15 15
17 14 13 10 6 6 6 3 6 7 14 7 5 5 6 8 9 13 14 13 9 9 13 13 12 13 14 2 7 8 9 9 7 5 9 13 12 12 8 14 11 14 15 17 18
17 12 10 8 5 11 6 7 9 6 7 14 5 4 4 12 10 13 14 11 10 13 13 9 12 14 4 4 9 11 12 14 1 3 10 11 12 3 4 6 12 13 13 15 17
17 11 7 6 4 8 12 11 4 6 8 10 10 10 12 11 10 15 14 13 8 12 9 14 6 1 3 10 12 14 15 7 10 11 17 10 8 22 8 4 3 10 12 13 15
17 9 5 5 3 7 11 13 8 4 6 11 11 8 8 9 7 13 18 11 7 11 12 11 12 4 10 10 11 15 9 7 10 12 9 3 2 8 13 11 6 7 11 14 15
15 7 7 13 6 7 6 5 5 5 6 15 12 11 12 11 15 10 15 10 13 9 7 5 8 9 12 12 8 12 10 11 14 14 18 4 1 10 32 13 6 4 7 9 13
11 5 12 6 6 2 2 5 7 7 3 9 11 13 14 12 8 12 13 10 7 8 11 12 3 8 13 9 9 10 15 20 20 16 7 12 3 6 9 8 6 8 5 2 11
1 10 17 5 3 3 5 8 7 10 15 10 15 18 17 11 11 15 14 15 11 12 14 17 15 14 11 13 13 16 18 12 7 10 4 19 4 1 3 8 7 5 7 5 3
5 12 4 8 2 4 9 9 11 8 11 14 15 16 14 13 14 15 13 13 13 11 9 5 8 16 11 14 15 11 13 8 12 7 4 21 4 7 9 11 6 7 7 4 3
6 4 8 5 7 5 8 11 0 8 7 10 12 15 11 11 4 12 14 13 5 10 9 3 2 9 7 7 9 9 10 10 12 16 7 5 20 9 15 15 10 8 10 8 5
4 10 9 6 7 8 7 11 4 5 6 11 11 13 11 13 9 9 11 1 2 2 9 10 7 10 16 8 11 12 12 11 5 8 12 8 7 4 5 11 10 7 9 9 7
7 5 8 8 6 7 11 7 5 5 7 4 2 7 7 11 13 13 11 9 1 4 6 14 10 2 8 12 15 10 13 8 13 7 10 7 1 10 6 7 6 7 7 9 7
9 4 11 9 7 8 4 2 2 7 6 3 6 1 1 2 8 4 4 5 2 5 10 1 10 13 13 2 7 10 14 16 9 8 5 15 6 9 9 8 7 9 6 8 7
5 4 8 10 7 8 4 8 2 6 1 3 3 4 3 1 4 7 1 9 3 7 10 11 8 12 15 16 15 14 15 13 17 16 11 14 1 5 12 10 8 7 6 3 3
5 5 5 8 9 14 8 7 8 1 3 2 2 3 3 4 3 2 6 7 2 6 6 6 14 17 15 11 8 13 16 9 13 12 12 8 10 7 3 10 10 8 6 6 4
3 3 6 6 7 5 5 2 4 6 2 3 3 4 4 4 5 8 4 7 8 10 6 8 15 16 18 19 17 18 16 18 20 19 16 21 16 16 8 11 11 9 5 5 5
6 5 1 4 3 7 6 6 5 4 5 5 9 3 6 8 8 11 9 7 7 6 7 9 13 12 18 18 18 20 20 16 19 20 20 17 21 15 10 11 12 9 5 5 5
11 3 5 5 4 8 1 6 1 3 4 4 6 7 10 7 7 10 12 12 12 10 11 12 12 12 16 15 15 15 17 15 14 17 18 16 6 9 8 8 8 8 6 6 6
Wind_Direction
346 343 341 334 329 328 322 316 314 314 315 316 320 324 323 316 308 281 260 57 173 245 269 270 255 264 242 283 334 251 270 59 21 9 43 71 339 100 360 151 185 275 141 164 153
344 341 335 337 328 322 318 311 308 308 307 311 316 322 323 321 300 256 174 208 213 220 267 260 266 273 234 222 330 315 26 24 30 337 1 112 312 7 206 186 153 140 90 132 160
342 338 334 329 325 314 311 308 303 300 299 306 313 318 320 321 269 127 162 209 212 225 272 287 272 265 283 202 346 5 44 7 21 22 329 357 238 165 248 259 162 152 155 151 168
337 333 328 325 318 310 301 299 300 296 293 300 309 315 311 285 252 83 134 194 209 231 268 260 250 247 293 341 98 271 208 289 18 343 296 297 0 280 280 6 14 153 154 164 177
332 327 321 320 314 305 297 292 293 293 290 295 307 315 311 227 251 111 91 228 207 225 247 246 260 274 262 345 299 251 352 299 11 122 264 237 265 301 281 226 152 257 156 175 182
329 323 318 315 309 300 292 285 286 288 289 289 301 307 249 251 81 116 186 190 201 214 229 243 277 357 301 292 281 354 291 281 358 23 247 281 271 195 191 167 158 194 174 179 189
326 320 314 313 309 306 289 282 280 283 282 276 280 302 264 251 179 175 194 205 212 219 231 237 288 261 335 274 59 282 277 281 149 346 324 310 254 212 219 171 174 178 182 173 190
323 316 310 307 302 301 294 280 277 279 264 254 252 269 264 144 225 218 202 197 205 229 266 338 260 276 272 305 259 253 258 265 92 325 104 280 329 132 140 192 185 184 179 188 179
324 315 307 304 297 291 272 267 277 253 216 203 243 231 235 160 204 200 197 193 191 217 232 260 254 257 271 241 264 197 284 346 292 182 322 262 311 111 179 220 216 183 176 193 179
325 316 307 298 290 280 212 205 197 151 210 239 266 253 226 209 165 178 193 201 198 211 218 226 234 245 229 248 268 344 327 335 314 329 329 291 278 279 186 204 214 204 187 187 185
327 315 304 291 272 172 144 178 203 190 216 281 175 263 127 108 157 191 190 213 227 210 225 195 233 231 249 237 349 304 287 288 269 24 312 305 311 286 336 177 226 216 187 187 191
330 316 302 284 231 188 199 241 20 346 217 219 231 270 241 175 179 184 193 212 209 227 213 208 233 261 268 323 255 246 265 269 2 196 271 293 341 20 10 315 185 227 213 192 180
331 315 293 270 179 192 217 228 307 310 257 166 200 208 180 209 198 177 202 213 219 234 209 253 335 223 247 224 237 239 251 325 332 304 259 283 117 279 118 122 189 210 221 219 197
330 306 253 160 179 193 221 232 243 276 254 142 188 203 181 223 215 170 196 214 220 254 227 252 253 220 226 241 248 272 16 302 278 283 293 267 234 321 329 135 161 185 216 224 205
323 287 191 159 331 210 86 182 201 242 237 149 141 129 172 212 121 184 194 220 256 209 252 178 223 212 238 246 240 298 321 290 284 271 270 198 10 5 296 42 65 139 184 215 229
309 236 160 190 229 273 208 180 198 232 172 156 146 180 181 219 181 146 187 245 283 249 226 276 250 237 239 239 254 277 281 268 250 240 260 327 50 216 247 30 65 43 9 304 212
260 156 157 189 67 169 180 194 215 254 137 156 173 174 197 178 155 173 191 200 226 208 213 204 216 216 228 253 243 236 254 277 280 243 63 231 166 185 12 78 51 6 32 350 274
115 142 211 202 269 193 199 226 251 97 190 172 159 178 208 165 177 190 187 210 224 281 278 255 186 187 184 236 279 248 310 304 312 305 138 269 197 173 110 132 157 75 76 87 321
116 185 211 210 201 201 242 234 69 182 126 165 158 184 183 187 192 194 212 215 198 202 285 297 199 149 169 230 251 279 245 299 293 286 243 104 304 70 12 136 107 73 65 51 126
269 205 154 181 194 229 248 267 98 8 285 177 176 194 169 180 215 204 183 84 211 273 312 310 268 204 192 213 236 270 322 290 305 342 317 147 236 82 112 70 68 50 45 43 98
254 221 136 169 205 236 252 91 126 140 254 250 266 203 178 170 216 196 169 111 239 270 284 292 297 280 246 213 249 208 233 228 279 309 307 290 135 338 60 78 72 64 36 51 59
275 238 154 180 224 236 231 93 322 135 187 187 306 158 197 110 208 248 281 75 27 310 278 319 300 290 279 170 279 280 286 283 270 248 284 324 102 74 105 87 80 69 48 49 48
258 99 175 214 246 207 106 150 330 178 334 198 139 321 311 201 280 276 94 90 324 295 3 353 265 270 249 244 12 322 269 252 274 281 258 236 20 238 162 113 77 48 29 49 4
279 182 157 215 275 289 167 176 147 43 118 7 114 274 244 230 180 303 232 141 248 299 31 299 274 280 288 301 216 241 278 288 269 281 285 186 219 102 239 113 102 81 36 15 43
251 34 3 197 202 270 296 9 192 177 156 285 172 308 316 291 255 249 246 279 206 151 250 257 273 283 287 287 296 291 283 287 283 292 291 306 292 138 110 108 90 72 58 58 30
330 331 256 340 183 245 153 207 296 123 292 174 274 120 298 290 311 320 329 285 275 277 251 260 278 283 280 281 279 275 272 266 268 269 273 275 280 95 112 102 98 90 63 56 49
358 319 281 128 228 236 73 59 65 307 157 321 331 293 261 17 1 311 301 291 282 270 275 286 283 281 281 295 281 272 259 266 269 272 279 270 71 106 106 92 88 104 81 47 40